|
NORAD ID: 2088 Int'l Code: 1965-093D
Perigee: 670.0 km
Apogee: 785.3 km
Inclination: 59.7 °
Period: 99.2 minutes
Semi major axis: 7098 km
Launch date: November 19, 1965
Source: United States (US)
Note: This is SATELLITE DEBRIS
Two Line Element Set (TLE):
1 02088U 65093D 13142.29214647 .00000467 00000-0 14977-3 0 1829
2 02088 059.7209 216.0850 0081208 292.8473 066.4009 14.51561812479894
Source:
NASA's NSSDC Master Catalog entry for SCOUT X-4 DEB
|